Goshen, IN

1:58 AM EST on February 25, 2018 (GMT -0500)
Goshen Municipal

Weather History for KGSH - November, 2010

Change the Weather History Date:

Sunday, November 28, 2010

  Actual Average Record
Temperature  
Mean Temperature 30 °F -  
Max Temperature 41 °F 40 °F 65 °F (1960)
Min Temperature 18 °F 28 °F 4 °F (1955)
Degree Days  
Heating Degree Days 36    
Moisture  
Dew Point 23 °F    
Average Humidity 76    
Maximum Humidity 89    
Minimum Humidity 51    
Precipitation  
Precipitation 0.00 in - - ()
Sea Level Pressure  
Sea Level Pressure 30.25 in    
Wind  
Wind Speed 6 mph (SSE)    
Max Wind Speed 12 mph    
Max Gust Speed -    
Visibility 10 miles    
Events      
Averages and records for this station are not official NWS values.
T = Trace of Precipitation, MM = Missing Value Source: NWS Daily Summary

Daily Weather History Graph

Daily Weather History Graph

Search for Another Location

Airport or City:

Trip Planner

Search our weather history database for the weather conditions in past years. The results will help you decide how hot, cold, wet, or windy it might be!

Date:

Astronomy

Nov. 28, 2010 Rise Set
Actual Time 7:46 AM EST 5:15 PM EST
Civil Twilight 7:16 AM EST 5:45 PM EST
Nautical Twilight 6:42 AM EST 6:20 PM EST
Astronomical Twilight 6:08 AM EST 6:53 PM EST
Moon No Moon Rise 12:51 PM EST (11/28)
Length of Visible Light 10h 29m
Length of Day
9h 28m
Waning Gibbous, 52% of the Moon is Illuminated
Nov 28
Waning Gibbous
Nov 28
Last Quarter
Dec 5
New
Dec 13
First Quarter
Dec 21
Full

Hourly Weather History & Observations

Time (EST) Temp. Windchill Dew Point Humidity Pressure Visibility Wind Dir Wind Speed Gust Speed Precip Events Conditions
12:53 AM 18.0 °F 9.8 °F 15.1 °F 88% 30.22 in 9.0 mi South 5.8 mph - N/A   Clear
1:53 AM 19.9 °F 12.1 °F 17.1 °F 89% 30.22 in 10.0 mi South 5.8 mph - N/A   Clear
2:53 AM 21.0 °F 14.6 °F 18.0 °F 88% 30.23 in 10.0 mi South 4.6 mph - N/A   Clear
3:53 AM 21.0 °F 14.6 °F 18.0 °F 88% 30.25 in 10.0 mi SW 4.6 mph - N/A   Clear
4:53 AM 19.9 °F 13.4 °F 17.1 °F 89% 30.26 in 10.0 mi South 4.6 mph - N/A   Clear
5:53 AM 21.0 °F 14.6 °F 18.0 °F 88% 30.27 in 10.0 mi South 4.6 mph - N/A   Clear
6:53 AM 19.9 °F 13.4 °F 17.1 °F 89% 30.29 in 10.0 mi SSE 4.6 mph - N/A   Clear
7:53 AM 19.9 °F 13.4 °F 17.1 °F 89% 30.30 in 10.0 mi SSE 4.6 mph - N/A   Clear
8:53 AM 25.0 °F 19.3 °F 21.9 °F 88% 30.32 in 10.0 mi SSE 4.6 mph - N/A   Clear
9:53 AM 30.0 °F 23.2 °F 26.1 °F 85% 30.32 in 10.0 mi South 6.9 mph - N/A   Clear
10:53 AM 34.0 °F 26.6 °F 28.0 °F 79% 30.32 in 10.0 mi SSW 9.2 mph - N/A   Clear
11:53 AM 36.0 °F 28.5 °F 27.0 °F 70% 30.30 in 10.0 mi SSW 10.4 mph - N/A   Clear
12:53 PM 37.9 °F 30.5 °F 26.1 °F 62% 30.28 in 10.0 mi South 11.5 mph - N/A   Clear
1:53 PM 39.0 °F 32.8 °F 25.0 °F 57% 30.27 in 10.0 mi South 9.2 mph - N/A   Clear
2:53 PM 41.0 °F 35.2 °F 25.0 °F 53% 30.25 in 10.0 mi South 9.2 mph - N/A   Clear
3:53 PM 41.0 °F 35.2 °F 24.1 °F 51% 30.23 in 10.0 mi SSE 9.2 mph - N/A   Clear
4:53 PM 37.9 °F 32.7 °F 25.0 °F 60% 30.22 in 10.0 mi SE 6.9 mph - N/A   Clear
5:53 PM 34.0 °F 28.8 °F 24.1 °F 67% 30.23 in 10.0 mi ESE 5.8 mph - N/A   Clear
6:53 PM 33.1 °F 27.7 °F 24.1 °F 70% 30.23 in 10.0 mi ESE 5.8 mph - N/A   Clear
7:53 PM 32.0 °F 26.4 °F 24.1 °F 73% 30.23 in 10.0 mi ESE 5.8 mph - N/A   Clear
8:53 PM 32.0 °F 23.6 °F 25.0 °F 75% 30.20 in 10.0 mi SE 10.4 mph - N/A   Clear
9:53 PM 32.0 °F 24.8 °F 26.1 °F 79% 30.19 in 10.0 mi SE 8.1 mph - N/A   Clear
10:53 PM 32.0 °F 24.2 °F 26.1 °F 79% 30.17 in 10.0 mi ESE 9.2 mph - N/A   Clear
11:53 PM 32.0 °F 24.8 °F 26.1 °F 79% 30.19 in 9.0 mi SE 8.1 mph - N/A   Clear